Time,TemperatureF,DewpointF,PressureIn,WindDirection,WindDirectionDegrees,WindSpeedMPH,WindSpeedGustMPH,Humidity,HourlyPrecipIn,Conditions,Clouds,dailyrainin,SoftwareType,DateUTC
2013-01-06 16:03:00,48.0,32.0,30.08,WNW,292,3.0,-999.0,54,-99.99,,,-99.99,,2013-01-06 21:03:00,
2013-01-06 16:12:00,48.0,32.0,30.08,WNW,292,3.0,-999.0,54,-99.99,,,-99.99,,2013-01-06 21:12:00,
2013-01-06 16:22:00,47.0,32.0,30.08,North,5,5.0,-999.0,55,-99.99,,,-99.99,,2013-01-06 21:22:00,
2013-01-06 16:33:00,46.0,32.0,30.08,NNE,13,3.0,-999.0,59,-99.99,,,-99.99,,2013-01-06 21:33:00,
2013-01-06 16:43:00,46.0,32.0,30.08,NNE,13,3.0,-999.0,59,-99.99,,,-99.99,,2013-01-06 21:43:00,
2013-01-06 16:52:00,45.0,32.0,30.08,NW,309,1.0,-999.0,61,-99.99,,,-99.99,,2013-01-06 21:52:00,
2013-01-06 17:02:00,44.0,32.0,30.08,NW,316,1.0,-999.0,63,-99.99,,,-99.99,,2013-01-06 22:02:00,
2013-01-06 17:12:00,44.0,32.0,30.08,NW,316,1.0,-999.0,63,-99.99,,,-99.99,,2013-01-06 22:12:00,
2013-01-06 17:22:00,44.0,31.0,30.08,NW,313,2.0,-999.0,61,-99.99,,,-99.99,,2013-01-06 22:22:00,
2013-01-06 17:33:00,43.0,30.0,30.09,NW,304,1.0,-999.0,61,-99.99,,,-99.99,,2013-01-06 22:33:00,
2013-01-06 17:43:00,43.0,30.0,30.09,NW,304,1.0,-999.0,61,-99.99,,,-99.99,,2013-01-06 22:43:00,
2013-01-06 17:52:00,43.0,30.0,30.09,NW,316,1.0,-999.0,61,-99.99,,,-99.99,,2013-01-06 22:52:00,
2013-01-06 18:02:00,42.0,30.0,30.09,NNW,327,0.0,-999.0,62,-99.99,,,-99.99,,2013-01-06 23:02:00,
2013-01-06 18:13:00,42.0,30.0,30.09,NNW,327,0.0,-999.0,62,-99.99,,,-99.99,,2013-01-06 23:13:00,
2013-01-06 18:22:00,41.0,29.0,30.10,North,11,1.0,-999.0,63,-99.99,,,-99.99,,2013-01-06 23:22:00,
2013-01-06 18:33:00,41.0,30.0,30.12,NE,54,3.0,-999.0,65,-99.99,,,-99.99,,2013-01-06 23:33:00,
2013-01-06 18:43:00,41.0,30.0,30.12,NE,54,3.0,-999.0,65,-99.99,,,-99.99,,2013-01-06 23:43:00,
2013-01-06 18:52:00,40.0,30.0,30.14,WNW,288,3.0,-999.0,66,-99.99,,,-99.99,,2013-01-06 23:52:00,
2013-01-06 19:03:00,40.0,30.0,30.15,ESE,114,1.0,-999.0,67,-99.99,,,-99.99,,2013-01-07 00:03:00,
2013-01-06 19:12:00,40.0,30.0,30.15,ESE,114,1.0,-999.0,67,-99.99,,,-99.99,,2013-01-07 00:12:00,
2013-01-06 19:23:00,39.0,29.0,30.16,SSW,206,0.0,-999.0,67,-99.99,,,-99.99,,2013-01-07 00:23:00,
2013-01-06 19:33:00,39.0,29.0,30.16,West,265,0.0,-999.0,68,-99.99,,,-99.99,,2013-01-07 00:33:00,
2013-01-06 19:43:00,39.0,29.0,30.16,West,265,0.0,-999.0,68,-99.99,,,-99.99,,2013-01-07 00:43:00,
2013-01-06 19:53:00,40.0,30.0,30.15,WNW,286,1.0,-999.0,67,-99.99,,,-99.99,,2013-01-07 00:53:00,
2013-01-06 20:02:00,40.0,30.0,30.15,WNW,282,1.0,-999.0,67,-99.99,,,-99.99,,2013-01-07 01:02:00,
2013-01-06 20:12:00,40.0,30.0,30.15,WNW,282,1.0,-999.0,67,-99.99,,,-99.99,,2013-01-07 01:12:00,
2013-01-06 20:23:00,39.0,29.0,30.15,WNW,302,0.0,-999.0,67,-99.99,,,-99.99,,2013-01-07 01:23:00,
2013-01-06 20:32:00,38.0,29.0,30.16,West,274,0.0,-999.0,69,-99.99,,,-99.99,,2013-01-07 01:32:00,
2013-01-06 20:42:00,38.0,29.0,30.16,West,274,0.0,-999.0,69,-99.99,,,-99.99,,2013-01-07 01:42:00,
2013-01-06 20:52:00,38.0,29.0,30.15,NW,313,0.0,-999.0,70,-99.99,,,-99.99,,2013-01-07 01:52:00,
2013-01-06 21:02:00,38.0,29.0,30.16,NW,313,0.0,-999.0,69,-99.99,,,-99.99,,2013-01-07 02:02:00,
2013-01-06 21:12:00,38.0,29.0,30.16,NW,313,0.0,-999.0,69,-99.99,,,-99.99,,2013-01-07 02:12:00,
2013-01-06 21:23:00,38.0,29.0,30.16,South,184,0.0,-999.0,69,-99.99,,,-99.99,,2013-01-07 02:23:00,
2013-01-06 21:32:00,39.0,29.0,30.16,ESE,123,0.0,-999.0,68,-99.99,,,-99.99,,2013-01-07 02:32:00,
2013-01-06 21:42:00,39.0,29.0,30.16,ESE,123,0.0,-999.0,68,-99.99,,,-99.99,,2013-01-07 02:42:00,
2013-01-06 21:53:00,38.0,29.0,30.17,NW,319,0.0,-999.0,69,-99.99,,,-99.99,,2013-01-07 02:53:00,
2013-01-06 22:02:00,40.0,30.0,30.17,NNW,337,1.0,-999.0,67,-99.99,,,-99.99,,2013-01-07 03:02:00,
2013-01-06 22:12:00,40.0,30.0,30.17,NNW,337,1.0,-999.0,67,-99.99,,,-99.99,,2013-01-07 03:12:00,
2013-01-06 22:22:00,40.0,30.0,30.18,West,278,0.0,-999.0,67,-99.99,,,-99.99,,2013-01-07 03:22:00,
2013-01-06 22:33:00,40.0,30.0,30.18,West,278,0.0,-999.0,67,-99.99,,,-99.99,,2013-01-07 03:33:00,
2013-01-06 22:43:00,40.0,30.0,30.18,West,278,0.0,-999.0,67,-99.99,,,-99.99,,2013-01-07 03:43:00,
2013-01-06 22:52:00,40.0,30.0,30.18,SW,219,1.0,-999.0,67,-99.99,,,-99.99,,2013-01-07 03:52:00,
2013-01-06 23:02:00,39.0,29.0,30.19,SSW,195,0.0,-999.0,67,-99.99,,,-99.99,,2013-01-07 04:02:00,
2013-01-06 23:13:00,39.0,29.0,30.19,SSW,195,0.0,-999.0,67,-99.99,,,-99.99,,2013-01-07 04:13:00,
2013-01-06 23:22:00,40.0,30.0,30.19,SW,227,0.0,-999.0,66,-99.99,,,-99.99,,2013-01-07 04:22:00,
2013-01-06 23:33:00,40.0,29.0,30.18,NNW,344,2.0,-999.0,65,-99.99,,,-99.99,,2013-01-07 04:33:00,
2013-01-06 23:42:00,40.0,29.0,30.18,NNW,344,2.0,-999.0,65,-99.99,,,-99.99,,2013-01-07 04:42:00,
2013-01-06 23:52:00,41.0,30.0,30.19,WNW,295,2.0,-999.0,64,-99.99,,,-99.99,,2013-01-07 04:52:00,